Santa Ana, CA

3:26 PM PST on February 10, 2016 (GMT -0800)
John Wayne-Orange County

Weather History for KSNA - January, 2012

Change the Weather History Date:

Friday, January 6, 2012

  Actual Average Record
Temperature  
Mean Temperature 60 °F 56 °F  
Max Temperature 71 °F 66 °F 86 °F (2015)
Min Temperature 48 °F 46 °F 42 °F (2005)
Degree Days  
Heating Degree Days 5 9  
Month to date heating degree days 10 54  
Since 1 July heating degree days 457 486  
Cooling Degree Days 0 0  
Month to date cooling degree days 3 0  
Year to date cooling degree days 3 0  
Growing Degree Days 9 (Base 50)    
Moisture  
Dew Point 45 °F    
Average Humidity 65    
Maximum Humidity 93    
Minimum Humidity 36    
Precipitation  
Precipitation 0.00 in 0.12 in 1.01 in (2016)
Month to date precipitation 0.00 0.74  
Year to date precipitation 0.00 0.74  
Since 1 July precipitation 2.45  
Snow  
Snow 0.00 in - - ()
Month to date snowfall 0.0  
Year to date snowfall 0.0  
Snow Depth 0.00 in    
Sea Level Pressure  
Sea Level Pressure 29.98 in    
Wind  
Wind Speed 3 mph (SSW)    
Max Wind Speed 13 mph    
Max Gust Speed 15 mph    
Visibility 8 miles    
Events      
T = Trace of Precipitation, MM = Missing Value Source: NWS Daily Summary

Daily Weather History Graph

Daily Weather History Graph

Search for Another Location

Airport or City:

Trip Planner

Search our weather history database for the weather conditions in past years. The results will help you decide how hot, cold, wet, or windy it might be!

Date:

Astronomy

Jan. 06, 2012 Rise Set
Actual Time 6:56 AM PST 4:57 PM PST
Civil Twilight 6:29 AM PST 5:25 PM PST
Nautical Twilight 5:58 AM PST 5:56 PM PST
Astronomical Twilight 5:28 AM PST 6:26 PM PST
Moon 2:53 PM PST (1/6) 4:39 AM PST (1/6)
Length of Visible Light 10h 55m
Length of Day
10h 01m
Waxing Gibbous, 94% of the Moon is Illuminated
Jan 6
Waxing Gibbous
Jan 8
Full
Jan 16
Last Quarter
Jan 22
New
Jan 30
First Quarter

Hourly Weather History & Observations

Time (PST) Temp. Dew Point Humidity Pressure Visibility Wind Dir Wind Speed Gust Speed Precip Events Conditions
12:53 AM 54.0 °F 37.0 °F 53% 29.98 in 10.0 mi SE 4.6 mph - N/A   Clear
1:53 AM 52.0 °F 36.0 °F 54% 29.99 in 10.0 mi Calm Calm - N/A   Clear
2:53 AM 52.0 °F 37.0 °F 57% 29.99 in 10.0 mi NNE 3.5 mph - N/A   Clear
3:53 AM 51.1 °F 35.1 °F 54% 29.97 in 10.0 mi Calm Calm - N/A   Clear
4:53 AM 50.0 °F 36.0 °F 59% 29.97 in 10.0 mi Calm Calm - N/A   Clear
5:53 AM 48.9 °F 36.0 °F 61% 29.98 in 10.0 mi Calm Calm - N/A   Clear
6:53 AM 51.1 °F 34.0 °F 52% 29.98 in 10.0 mi Calm Calm - N/A   Partly Cloudy
7:53 AM 53.1 °F 37.0 °F 55% 30.01 in 10.0 mi Calm Calm - N/A   Scattered Clouds
8:53 AM 60.1 °F 39.9 °F 47% 30.03 in 10.0 mi Calm Calm - N/A   Scattered Clouds
9:53 AM 64.9 °F 43.0 °F 45% 30.04 in 10.0 mi Calm Calm - N/A   Partly Cloudy
10:53 AM 66.2 °F 42.8 °F 43% 30.01 in 10.0 mi Calm Calm - N/A   Partly Cloudy
11:53 AM 70.0 °F 44.1 °F 39% 29.99 in 10.0 mi SSW 8.1 mph - N/A   Partly Cloudy
12:53 PM 69.1 °F 42.1 °F 38% 29.96 in 10.0 mi SW 8.1 mph - N/A   Partly Cloudy
1:53 PM 70.0 °F 41.0 °F 35% 29.95 in 10.0 mi SW 10.4 mph - N/A   Partly Cloudy
2:53 PM 68.0 °F 44.1 °F 42% 29.96 in 10.0 mi SSW 9.2 mph - N/A   Partly Cloudy
3:53 PM 62.6 °F 51.8 °F 68% 29.96 in 10.0 mi SW 9.2 mph - N/A   Scattered Clouds
4:53 PM 60.1 °F 55.0 °F 83% 29.96 in 9.0 mi SSW 4.6 mph - N/A   Scattered Clouds
5:53 PM 59.0 °F 53.6 °F 82% 29.96 in 8.0 mi South 4.6 mph - N/A   Partly Cloudy
6:53 PM 57.9 °F 53.1 °F 84% 29.96 in 7.0 mi South 4.6 mph - N/A   Clear
7:53 PM 57.9 °F 53.1 °F 84% 29.97 in 7.0 mi SW 3.5 mph - N/A   Partly Cloudy
8:29 PM 57.2 °F 53.6 °F 88% 29.97 in 4.0 mi SW 6.9 mph - N/A   Mostly Cloudy
8:50 PM 55.4 °F 53.6 °F 94% 29.97 in 4.0 mi SW 5.8 mph - N/A   Scattered Clouds
8:53 PM 55.9 °F 53.1 °F 90% 29.98 in 4.0 mi Calm Calm - N/A   Scattered Clouds
9:11 PM 57.2 °F 53.6 °F 88% 29.98 in 5.0 mi Calm Calm - N/A   Mostly Cloudy
9:53 PM 57.0 °F 53.1 °F 87% 29.99 in 5.0 mi Calm Calm - N/A   Mostly Cloudy
10:53 PM 57.0 °F 53.1 °F 87% 30.00 in 4.0 mi Calm Calm - N/A   Overcast
11:53 PM 55.9 °F 52.0 °F 87% 29.99 in 6.0 mi Calm Calm - N/A   Overcast